GW5365 Weather Reports


time (UTC)temp
C
wind
direction
speed
KPH
gust
KPH
rain 1hr
cm
rain 24hr
cm
rain mn
cm
humidity
%
barometer
mb
20260503070639 15 112 11.3 11.3 0.00 0.00 0.00 85 1015.3
20260503054640 15 292 16.1 16.1 0.00 0.00 0.00 82 1015.3
20260503053641 15 248 12.9 12.9 0.00 0.00 0.00 82 1015.0
20260503052641 15 270 16.1 16.1 0.00 0.00 0.00 82 1015.0
20260503051640 15 292 12.9 12.9 0.00 0.00 0.00 82 1014.9
20260503050640 15 270 16.1 16.1 0.00 0.00 0.00 84 1014.9
20260503045641 16 292 12.9 12.9 0.00 0.00 0.00 85 1014.7
20260503044640 16 270 3.2 3.2 0.00 0.00 0.00 84 1014.9
20260503043639 15 315 8.0 8.0 0.00 0.00 0.00 85 1015.0
20260503041641 15 270 3.2 3.2 0.00 0.00 0.00 86 1015.2
20260503040640 15 270 9.7 9.7 0.00 0.00 0.00 86 1015.1
20260503035640 16 315 8.0 8.0 0.00 0.00 0.00 85 1014.9
20260503034641 16 292 16.1 16.1 0.00 0.00 0.00 85 1015.1
20260503033640 16 315 8.0 8.0 0.00 0.00 0.00 85 1015.3
20260503032640 16 22 11.3 11.3 0.00 0.00 0.00 85 1015.4
20260503031640 16 270 8.0 8.0 0.00 0.00 0.00 84 1015.3
20260503025642 16 22 8.0 8.0 0.00 0.00 0.00 83 1015.4
20260503023641 16 248 11.3 11.3 0.00 0.00 0.00 82 1015.4
20260503022641 16 270 17.7 17.7 0.00 0.00 0.00 82 1015.3
20260503021641 17 248 16.1 16.1 0.00 0.00 0.00 81 1015.4
20260503020640 17 248 8.0 8.0 0.00 0.00 0.00 80 1015.3
20260503015640 17 270 6.4 6.4 0.00 0.00 0.00 79 1015.3
20260503013640 17 292 14.5 14.5 0.00 0.00 0.00 74 1015.5
20260503012640 17 270 11.3 11.3 0.00 0.00 0.00 74 1015.5
20260503011640 17 248 8.0 8.0 0.00 0.00 0.00 74 1015.5
20260503010640 17 270 19.3 19.3 0.00 0.00 0.00 76 1015.4
20260503005640 17 270 8.0 8.0 0.00 0.00 0.00 77 1015.6
20260503004641 18 248 9.7 9.7 0.00 0.00 0.00 74 1015.7
20260503003640 18 248 3.2 3.2 0.00 0.00 0.00 72 1015.9
20260503002640 18 270 3.2 3.2 0.00 0.00 0.00 71 1015.9
20260503000641 18 270 8.0 8.0 0.00 0.00 0.00 72 1016.0
20260502235640 18 248 11.3 11.3 0.00 0.00 0.00 72 1016.1
20260502231641 18 135 1.6 1.6 0.00 0.00 0.00 69 1016.4
20260502230641 18 135 4.8 4.8 0.00 0.00 0.00 70 1016.5
20260502225641 18 135 4.8 4.8 0.00 0.00 0.00 68 1016.5
20260502224641 18 135 1.6 1.6 0.00 0.00 0.00 68 1016.4
20260502223640 18 135 1.6 1.6 0.00 0.00 0.00 68 1016.3
20260502222640 19 202 3.2 3.2 0.00 0.00 0.00 68 1016.3
20260502221640 19 248 8.0 8.0 0.00 0.00 0.00 67 1016.2
20260502220642 19 248 3.2 3.2 0.00 0.00 0.00 63 1016.4
20260502215640 19 248 6.4 6.4 0.00 0.00 0.00 63 1016.5
20260502213639 19 292 11.3 11.3 0.00 0.00 0.00 65 1016.5
20260502212640 20 248 14.5 14.5 0.00 0.00 0.00 64 1016.6
20260502211641 20 248 12.9 12.9 0.00 0.00 0.00 63 1016.4
20260502210641 20 248 11.3 11.3 0.00 0.00 0.00 62 1016.4
20260502205640 20 270 14.5 14.5 0.00 0.00 0.00 62 1016.3
20260502204640 20 270 12.9 12.9 0.00 0.00 0.00 62 1016.2
20260502203642 20 270 11.3 11.3 0.00 0.00 0.00 61 1016.1
20260502202641 20 270 12.9 12.9 0.00 0.00 0.00 61 1016.1
20260502201641 20 270 12.9 12.9 0.00 0.00 0.00 61 1016.1
20260502200640 20 270 11.3 11.3 0.00 0.00 0.00 61 1016.0
20260502195641 20 292 11.3 11.3 0.00 0.00 0.00 63 1015.8
20260502194641 20 292 11.3 11.3 0.00 0.00 0.00 62 1015.7
20260502193642 20 292 16.1 16.1 0.00 0.00 0.00 61 1015.5
20260502192641 20 270 16.1 16.1 0.00 0.00 0.00 60 1015.6
20260502190640 21 270 8.0 8.0 0.00 0.00 0.00 60 1015.3
20260502184640 21 292 9.7 9.7 0.00 0.00 0.00 59 1015.4
20260502182640 21 292 9.7 9.7 0.00 0.00 0.00 58 1015.4
20260502180641 22 270 12.9 12.9 0.00 0.00 0.00 59 1015.4
20260502163641 23 112 0.0 0.0 0.00 0.00 0.00 56 1015.7
20260502162641 22 68 8.0 8.0 0.00 0.00 0.00 57 1015.7
20260502161641 23 338 6.4 6.4 0.00 0.00 0.00 57 1015.8
20260502160641 23 248 1.6 1.6 0.00 0.00 0.00 54 1015.8
20260502151641 22 248 6.4 6.4 0.00 0.00 0.00 57 1016.3
20260502150640 22 292 4.8 4.8 0.00 0.00 0.00 58 1016.4
20260502130640 22 270 8.0 8.0 0.00 0.00 0.00 59 1017.9
20260502122641 21 0 6.4 6.4 0.00 0.00 0.00 62 1018.1
20260502121640 21 45 8.0 8.0 0.00 0.00 0.00 60 1018.3
20260502120641 21 270 6.4 6.4 0.00 0.00 0.00 61 1018.5
20260502115642 21 270 8.0 8.0 0.00 0.00 0.00 60 1018.5
20260502114640 21 270 6.4 6.4 0.00 0.00 0.00 61 1018.6
20260502113640 21 270 8.0 8.0 0.00 0.00 0.00 62 1018.8
20260502112640 21 292 11.3 11.3 0.00 0.00 0.00 63 1018.8
20260502111640 21 292 11.3 11.3 0.00 0.00 0.00 61 1018.9
20260502110641 21 22 6.4 6.4 0.00 0.00 0.00 60 1018.9
20260502105640 20 270 9.7 9.7 0.00 0.00 0.00 61 1018.9
20260502104641 20 270 6.4 6.4 0.00 0.00 0.00 61 1018.9
20260502103641 20 45 8.0 8.0 0.00 0.00 0.00 61 1019.0
20260502102640 20 270 8.0 8.0 0.00 0.00 0.00 62 1019.1
20260502100640 21 270 0.0 0.0 0.00 0.00 0.00 59 1019.2
20260502090639 21 68 0.0 0.0 0.00 0.00 0.00 56 1019.1